"Period start","avg(HW err(1)/warn(2) (#))","avg(Visibility (m))","avg(Weather code (#))","avg(Precip intensity (mm/h))","min(HW err(1)/warn(2) (#))","max(HW err(1)/warn(2) (#))","std(HW err(1)/warn(2) (#))","med(HW err(1)/warn(2) (#))","min(Visibility (m))","max(Visibility (m))","std(Visibility (m))","med(Visibility (m))","min(Weather code (#))","max(Weather code (#))","std(Weather code (#))","med(Weather code (#))","min(Precip intensity (mm/h))","max(Precip intensity (mm/h))","std(Precip intensity (mm/h))","med(Precip intensity (mm/h))"
2013-09-03 00:00:00,2,20336,57,0.82,2,2,0,2,17983,23593,1827,20320,52,61,4,61,0.40,1.35,0.30,0.78
2013-09-03 00:10:00,2,18154,56,1.63,2,2,0,2,15814,20986,1624,18458,52,61,4,52,0.80,2.25,0.51,1.77
2013-09-03 00:20:00,2,17309,61,2.77,2,2,0,2,14764,20089,1922,17322,61,61,0,61,1.80,4.05,0.71,2.90
2013-09-03 00:30:00,2,16785,61,2.18,2,2,0,2,14721,19733,1486,16520,61,61,0,61,1.25,4.20,0.90,2.00
2013-09-03 00:40:00,2,17089,52,0.98,2,2,0,2,14947,20267,1536,16878,52,52,0,52,0.30,1.40,0.33,1.05
2013-09-03 00:50:00,2,17462,52,1.27,2,2,0,2,15124,20229,1523,17518,52,52,0,52,0.35,2.10,0.47,1.15
2013-09-03 01:00:00,2,20853,52,1.27,2,2,0,2,16202,25528,3268,20765,52,52,0,52,0.55,2.35,0.62,1.23
2013-09-03 01:10:00,2,17209,52,0.82,2,2,0,2,11588,23234,3699,16708,51,52,0,52,0.30,1.90,0.44,0.75
2013-09-03 01:20:00,2,11944,59,2.35,2,2,0,2,10382,13805,1215,11818,52,61,4,61,0.50,4.90,1.46,2.48
2013-09-03 01:30:00,2,29796,60,0.26,2,2,0,2,19976,39710,5601,29960,51,61,3,61,0.05,0.60,0.20,0.20
2013-09-03 01:40:00,2,38169,33,0.02,2,2,0,2,31555,48761,5406,37002,0,51,22,41,0.00,0.05,0.02,0.00
2013-09-03 01:50:00,2,42491,0,0.00,2,2,0,2,38178,45796,2406,42100,0,0,0,0,0.00,0.00,0.00,0.00
2013-09-03 02:00:00,2,31928,0,0.00,2,2,0,2,27776,38761,3585,31264,0,0,0,0,0.00,0.00,0.00,0.00
2013-09-03 02:10:00,2,29724,0,0.00,2,2,0,2,25367,40035,4017,28925,0,0,0,0,0.00,0.00,0.00,0.00
2013-09-03 02:20:00,2,26619,0,0.00,2,2,0,2,23841,31077,2148,26722,0,0,0,0,0.00,0.00,0.00,0.00
2013-09-03 02:30:00,2,26484,0,0.00,2,2,0,2,22080,30135,2813,26472,0,0,0,0,0.00,0.00,0.00,0.00
2013-09-03 02:40:00,2,28888,0,0.00,2,2,0,2,21436,36549,4723,28016,0,0,0,0,0.00,0.00,0.00,0.00
2013-09-03 02:50:00,2,30046,0,0.00,2,2,0,2,23879,38443,4340,29678,0,0,0,0,0.00,0.00,0.00,0.00
2013-09-03 03:00:00,2,27238,0,0.00,2,2,0,2,22545,32330,2751,27230,0,0,0,0,0.00,0.00,0.00,0.00
2013-09-03 03:10:00,2,27161,0,0.00,2,2,0,2,21575,37049,4514,25908,0,0,0,0,0.00,0.00,0.00,0.00
2013-09-03 03:20:00,2,26792,0,0.00,2,2,0,2,23317,32001,3023,26470,0,0,0,0,0.00,0.00,0.00,0.00
2013-09-03 03:30:00,2,25836,0,0.00,2,2,0,2,21180,30583,2643,26360,0,0,0,0,0.00,0.00,0.00,0.00
2013-09-03 03:40:00,2,24637,0,0.00,2,2,0,2,21579,28407,2254,24904,0,0,0,0,0.00,0.00,0.00,0.00
2013-09-03 03:50:00,2,25979,23,0.32,2,2,0,2,18290,40048,6294,23366,0,61,28,0,0.00,1.30,0.47,0.00
2013-09-03 04:00:00,2,26754,10,0.01,2,2,0,2,22338,32048,2941,26830,0,51,20,0,0.00,0.05,0.02,0.00
2013-09-03 04:10:00,2,26222,0,0.00,2,2,0,2,22537,29671,1982,26352,0,0,0,0,0.00,0.00,0.00,0.00
2013-09-03 04:20:00,2,25617,0,0.00,2,2,0,2,22819,29937,2150,25292,0,0,0,0,0.00,0.00,0.00,0.00
2013-09-03 04:30:00,2,28912,0,0.00,0,2,1,2,26595,31575,1576,29002,0,0,0,0,0.00,0.00,0.00,0.00
2013-09-03 04:40:00,2,28537,0,0.00,0,2,1,2,22705,37671,4257,28429,0,0,0,0,0.00,0.00,0.00,0.00
2013-09-03 04:50:00,2,28818,0,0.00,0,2,1,2,22732,33952,4108,29903,0,0,0,0,0.00,0.00,0.00,0.00
2013-09-03 05:00:00,2,31021,0,0.00,0,2,1,2,27873,36897,2558,30170,0,0,0,0,0.00,0.00,0.00,0.00
2013-09-03 05:10:00,1,30776,0,0.00,0,2,1,0,23681,35555,3138,31405,0,0,0,0,0.00,0.00,0.00,0.00
2013-09-03 05:20:00,0,26632,0,0.00,0,2,1,0,23170,30181,2573,26970,0,0,0,0,0.00,0.00,0.00,0.00
2013-09-03 05:30:00,0,27440,0,0.00,0,0,0,0,23274,31874,2607,27041,0,0,0,0,0.00,0.00,0.00,0.00
2013-09-03 05:40:00,0,29757,0,0.00,0,0,0,0,26347,31938,1630,30100,0,0,0,0,0.00,0.00,0.00,0.00
2013-09-03 05:50:00,0,29788,0,0.00,0,0,0,0,24507,35896,3128,29112,0,0,0,0,0.00,0.00,0.00,0.00
2013-09-03 06:00:00,0,33028,0,0.00,0,0,0,0,29102,37498,2269,32884,0,0,0,0,0.00,0.00,0.00,0.00
2013-09-03 06:10:00,0,30400,0,0.00,0,0,0,0,25128,37555,3627,29130,0,0,0,0,0.00,0.00,0.00,0.00
2013-09-03 06:20:00,0,32209,0,0.00,0,0,0,0,29028,37276,2789,31378,0,0,0,0,0.00,0.00,0.00,0.00
2013-09-03 06:30:00,0,33721,0,0.00,0,0,0,0,25839,39555,3943,32588,0,0,0,0,0.00,0.00,0.00,0.00
2013-09-03 06:40:00,0,41677,0,0.00,0,0,0,0,32462,50000,6504,42153,0,0,0,0,0.00,0.00,0.00,0.00
2013-09-03 06:50:00,0,38780,0,0.00,0,0,0,0,36349,43648,2426,37917,0,0,0,0,0.00,0.00,0.00,0.00
2013-09-03 07:00:00,0,37441,0,0.00,0,0,0,0,31843,46666,4643,37021,0,0,0,0,0.00,0.00,0.00,0.00
2013-09-03 07:10:00,0,35875,0,0.00,0,0,0,0,29841,42351,4055,35160,0,0,0,0,0.00,0.00,0.00,0.00
2013-09-03 07:20:00,0,43208,0,0.00,0,0,0,0,38323,46857,2809,43260,0,0,0,0,0.00,0.00,0.00,0.00
2013-09-03 07:30:00,0,42958,0,0.00,0,0,0,0,36105,50000,4835,41499,0,0,0,0,0.00,0.00,0.00,0.00
2013-09-03 07:40:00,0,39190,0,0.00,0,0,0,0,30826,44451,4206,40290,0,0,0,0,0.00,0.00,0.00,0.00
2013-09-03 07:50:00,0,35832,0,0.00,0,0,0,0,27585,43822,5031,35416,0,0,0,0,0.00,0.00,0.00,0.00
2013-09-03 08:00:00,0,43155,0,0.00,0,0,0,0,39431,48490,2717,43471,0,0,0,0,0.00,0.00,0.00,0.00
2013-09-03 08:10:00,0,41201,0,0.00,0,0,0,0,37205,46415,2961,41126,0,0,0,0,0.00,0.00,0.00,0.00
2013-09-03 08:20:00,0,43692,0,0.00,0,0,0,0,40423,48505,2552,43446,0,0,0,0,0.00,0.00,0.00,0.00
2013-09-03 08:30:00,0,47050,0,0.00,0,0,0,0,44223,50000,1646,47032,0,0,0,0,0.00,0.00,0.00,0.00
2013-09-03 08:40:00,0,45676,0,0.00,0,0,0,0,33525,50000,6423,49822,0,0,0,0,0.00,0.00,0.00,0.00
2013-09-03 08:50:00,0,48764,0,0.00,0,0,0,0,42009,50000,2425,50000,0,0,0,0,0.00,0.00,0.00,0.00
2013-09-03 09:00:00,0,49782,0,0.00,0,0,0,0,48267,50000,514,50000,0,0,0,0,0.00,0.00,0.00,0.00
2013-09-03 09:10:00,0,49548,0,0.00,0,0,0,0,47766,50000,710,50000,0,0,0,0,0.00,0.00,0.00,0.00
2013-09-03 09:20:00,0,49640,0,0.00,0,0,0,0,46397,50000,1081,50000,0,0,0,0,0.00,0.00,0.00,0.00
2013-09-03 09:30:00,0,45606,0,0.00,0,0,0,0,41398,50000,2865,45916,0,0,0,0,0.00,0.00,0.00,0.00
2013-09-03 09:40:00,1,43020,0,0.00,0,2,1,0,37096,50000,4393,42396,0,0,0,0,0.00,0.00,0.00,0.00
2013-09-03 09:50:00,0,28537,12,0.01,0,2,1,0,17621,37032,6048,30818,0,61,24,0,0.00,0.10,0.03,0.00
2013-09-03 10:00:00,0,41287,15,0.00,0,0,0,0,33858,44721,3075,41984,0,51,23,0,0.00,0.00,0.00,0.00
2013-09-03 10:10:00,1,39907,0,0.00,0,2,1,1,34733,45367,3393,40080,0,0,0,0,0.00,0.00,0.00,0.00
2013-09-03 10:20:00,0,41262,0,0.00,0,2,1,0,35306,46341,3166,41516,0,0,0,0,0.00,0.00,0.00,0.00
2013-09-03 10:30:00,0,45666,0,0.00,0,0,0,0,36472,50000,4221,46570,0,0,0,0,0.00,0.00,0.00,0.00
2013-09-03 10:40:00,0,47421,0,0.00,0,0,0,0,40649,50000,3028,48865,0,0,0,0,0.00,0.00,0.00,0.00
2013-09-03 10:50:00,0,43642,0,0.00,0,0,0,0,39201,47676,2652,43878,0,0,0,0,0.00,0.00,0.00,0.00
2013-09-03 11:00:00,0,47580,0,0.00,0,0,0,0,44137,50000,2041,47938,0,0,0,0,0.00,0.00,0.00,0.00
2013-09-03 11:10:00,0,43074,0,0.00,0,0,0,0,37425,48659,3296,42433,0,0,0,0,0.00,0.00,0.00,0.00
2013-09-03 11:20:00,1,41223,0,0.00,0,2,1,2,32520,50000,6040,43783,0,0,0,0,0.00,0.00,0.00,0.00
2013-09-03 11:30:00,1,42250,0,0.00,0,2,1,2,37607,50000,4049,40912,0,0,0,0,0.00,0.00,0.00,0.00
2013-09-03 11:40:00,2,14958,33,0.16,0,2,1,2,8396,24748,4802,14015,0,61,27,51,0.00,0.50,0.19,0.10
2013-09-03 11:50:00,2,14976,51,0.45,0,2,1,2,9301,19458,2892,15666,51,52,0,51,0.15,1.05,0.27,0.45
2013-09-03 12:00:00,2,8379,52,1.87,0,2,1,2,6203,10330,1383,8353,52,52,0,52,0.45,3.45,0.91,1.90
2013-09-03 12:10:00,2,13725,53,1.92,2,2,0,2,8431,17455,3255,15247,52,61,3,52,0.35,6.10,2.02,1.05
2013-09-03 12:20:00,2,21260,36,0.42,2,2,0,2,10056,41158,11423,16763,0,61,29,56,0.00,2.70,0.82,0.05
2013-09-03 12:30:00,2,31889,0,0.00,2,2,0,2,22443,39063,6026,32208,0,0,0,0,0.00,0.00,0.00,0.00
2013-09-03 12:40:00,2,31689,0,0.00,0,2,1,2,25571,37094,3289,30888,0,0,0,0,0.00,0.00,0.00,0.00
2013-09-03 12:50:00,2,27126,0,0.00,2,2,0,2,23438,33721,2966,27172,0,0,0,0,0.00,0.00,0.00,0.00
2013-09-03 13:00:00,2,27152,0,0.00,0,2,1,2,20799,29853,2776,28340,0,0,0,0,0.00,0.00,0.00,0.00
2013-09-03 13:10:00,2,14962,60,1.99,0,2,1,2,7693,24898,5514,13633,51,61,3,61,0.00,7.55,2.28,1.43
2013-09-03 13:20:00,2,20268,52,2.17,2,2,0,2,11461,24830,3825,20862,0,61,18,61,0.00,6.80,2.28,1.73
2013-09-03 13:30:00,2,23715,61,1.15,2,2,0,2,20519,27787,2184,23546,61,61,0,61,0.35,3.00,0.92,0.68
2013-09-03 13:40:00,2,24434,61,1.20,2,2,0,2,19343,28781,2980,25024,61,61,0,61,0.20,3.40,0.89,0.92
2013-09-03 13:50:00,2,30549,22,0.06,2,2,0,2,24960,38367,4224,30707,0,61,28,0,0.00,0.40,0.12,0.00
2013-09-03 14:00:00,2,33379,0,0.00,2,2,0,2,27861,44242,5728,30264,0,0,0,0,0.00,0.00,0.00,0.00
2013-09-03 14:10:00,2,26409,0,0.00,2,2,0,2,22280,29580,2273,26974,0,0,0,0,0.00,0.00,0.00,0.00
2013-09-03 14:20:00,2,34437,0,0.00,2,2,0,2,25112,39458,3841,35616,0,0,0,0,0.00,0.00,0.00,0.00
2013-09-03 14:30:00,2,27038,0,0.00,2,2,0,2,23625,32031,2536,25898,0,0,0,0,0.00,0.00,0.00,0.00
2013-09-03 14:40:00,2,29426,0,0.00,2,2,0,2,25243,33893,2894,28189,0,0,0,0,0.00,0.00,0.00,0.00
2013-09-03 14:50:00,2,20929,0,0.00,2,2,0,2,17297,27447,3453,19415,0,0,0,0,0.00,0.00,0.00,0.00
2013-09-03 15:00:00,2,27718,0,0.00,2,2,0,2,21880,30322,2645,28571,0,0,0,0,0.00,0.00,0.00,0.00
2013-09-03 15:10:00,2,20071,0,0.00,2,2,0,2,12931,29414,5519,18259,0,0,0,0,0.00,0.00,0.00,0.00
2013-09-03 15:20:00,2,22420,0,0.00,2,2,0,2,14878,27801,3484,22520,0,0,0,0,0.00,0.00,0.00,0.00
2013-09-03 15:30:00,2,15706,0,0.00,2,2,0,2,11383,21627,3407,14716,0,0,0,0,0.00,0.00,0.00,0.00
2013-09-03 15:40:00,2,13256,0,0.00,2,2,0,2,10793,16835,1971,13354,0,0,0,0,0.00,0.00,0.00,0.00
2013-09-03 15:50:00,2,23596,0,0.00,2,2,0,2,18469,26792,2996,24989,0,0,0,0,0.00,0.00,0.00,0.00
2013-09-03 16:00:00,2,30174,0,0.00,2,2,0,2,24529,34350,3667,31052,0,0,0,0,0.00,0.00,0.00,0.00
2013-09-03 16:10:00,2,29369,0,0.00,2,2,0,2,23203,37380,3807,28835,0,0,0,0,0.00,0.00,0.00,0.00
2013-09-03 16:20:00,2,22565,0,0.00,2,2,0,2,19555,27851,2487,22066,0,0,0,0,0.00,0.00,0.00,0.00
2013-09-03 16:30:00,2,29213,0,0.00,2,2,0,2,24694,34915,3840,28828,0,0,0,0,0.00,0.00,0.00,0.00
2013-09-03 16:40:00,2,29898,0,0.00,2,2,0,2,19242,34081,4240,30004,0,0,0,0,0.00,0.00,0.00,0.00
2013-09-03 16:50:00,2,19466,0,0.00,2,2,0,2,14267,26602,3704,18160,0,0,0,0,0.00,0.00,0.00,0.00
2013-09-03 17:00:00,2,22103,0,0.00,2,2,0,2,20026,25198,1586,22381,0,0,0,0,0.00,0.00,0.00,0.00
2013-09-03 17:10:00,2,18394,0,0.00,2,2,0,2,15791,21661,1872,18184,0,0,0,0,0.00,0.00,0.00,0.00
2013-09-03 17:20:00,2,19500,0,0.00,2,2,0,2,17292,23689,1823,18694,0,0,0,0,0.00,0.00,0.00,0.00
2013-09-03 17:30:00,2,18795,0,0.00,2,2,0,2,16422,20904,1278,18845,0,0,0,0,0.00,0.00,0.00,0.00
2013-09-03 17:40:00,2,17437,0,0.00,2,2,0,2,14775,20220,1748,17782,0,0,0,0,0.00,0.00,0.00,0.00
2013-09-03 17:50:00,2,23053,0,0.00,2,2,0,2,19353,27878,2711,22670,0,0,0,0,0.00,0.00,0.00,0.00
2013-09-03 18:00:00,2,24655,0,0.00,2,2,0,2,19004,31374,4336,23640,0,0,0,0,0.00,0.00,0.00,0.00
2013-09-03 18:10:00,2,28150,0,0.00,2,2,0,2,25141,30786,1903,28901,0,0,0,0,0.00,0.00,0.00,0.00
2013-09-03 18:20:00,2,23086,0,0.00,2,2,0,2,20000,25005,1729,23596,0,0,0,0,0.00,0.00,0.00,0.00
2013-09-03 18:30:00,2,21618,0,0.00,2,2,0,2,19387,27054,2291,20890,0,0,0,0,0.00,0.00,0.00,0.00
2013-09-03 18:40:00,2,15650,0,0.00,2,2,0,2,11835,19518,2837,15405,0,0,0,0,0.00,0.00,0.00,0.00
2013-09-03 18:50:00,2,18638,0,0.00,2,2,0,2,13542,26754,4077,18005,0,0,0,0,0.00,0.00,0.00,0.00
2013-09-03 19:00:00,2,20070,0,0.00,2,2,0,2,14160,26722,4072,18816,0,0,0,0,0.00,0.00,0.00,0.00
2013-09-03 19:10:00,2,20024,0,0.00,2,2,0,2,15691,24738,2531,20300,0,0,0,0,0.00,0.00,0.00,0.00
2013-09-03 19:20:00,2,21610,0,0.00,2,2,0,2,18460,25215,1861,21426,0,0,0,0,0.00,0.00,0.00,0.00
2013-09-03 19:30:00,2,26587,0,0.00,2,2,0,2,21705,31822,3030,26138,0,0,0,0,0.00,0.00,0.00,0.00
2013-09-03 19:40:00,2,22685,0,0.00,2,2,0,2,19735,26367,1893,22506,0,0,0,0,0.00,0.00,0.00,0.00
2013-09-03 19:50:00,2,19775,0,0.00,2,2,0,2,16346,23141,2386,20440,0,0,0,0,0.00,0.00,0.00,0.00
2013-09-03 20:00:00,2,19392,0,0.00,2,2,0,2,15738,26903,3298,18299,0,0,0,0,0.00,0.00,0.00,0.00
2013-09-03 20:10:00,2,19162,0,0.00,2,2,0,2,13732,25860,4368,18842,0,0,0,0,0.00,0.00,0.00,0.00
2013-09-03 20:20:00,2,18454,0,0.00,2,2,0,2,14447,23710,2801,18481,0,0,0,0,0.00,0.00,0.00,0.00
2013-09-03 20:30:00,2,11518,0,0.00,2,2,0,2,9122,14883,1524,11278,0,0,0,0,0.00,0.00,0.00,0.00
2013-09-03 20:40:00,2,10405,0,0.00,2,2,0,2,8818,14651,1582,9968,0,0,0,0,0.00,0.00,0.00,0.00
2013-09-03 20:50:00,2,11716,0,0.00,2,2,0,2,9868,14443,1636,11329,0,0,0,0,0.00,0.00,0.00,0.00
2013-09-03 21:00:00,2,17349,0,0.00,2,2,0,2,15695,19835,1404,17234,0,0,0,0,0.00,0.00,0.00,0.00
2013-09-03 21:10:00,2,17031,0,0.00,2,2,0,2,13399,19728,2169,17865,0,0,0,0,0.00,0.00,0.00,0.00
2013-09-03 21:20:00,2,15514,0,0.00,2,2,0,2,13352,19496,2004,15120,0,0,0,0,0.00,0.00,0.00,0.00
2013-09-03 21:30:00,2,21797,0,0.00,2,2,0,2,19370,25806,2055,20954,0,0,0,0,0.00,0.00,0.00,0.00
2013-09-03 21:40:00,2,21326,0,0.00,2,2,0,2,17185,24265,2168,21508,0,0,0,0,0.00,0.00,0.00,0.00
2013-09-03 21:50:00,2,23294,0,0.00,2,2,0,2,18006,28368,2672,23298,0,0,0,0,0.00,0.00,0.00,0.00
2013-09-03 22:00:00,2,11922,0,0.00,2,2,0,2,10368,13322,959,11885,0,0,0,0,0.00,0.00,0.00,0.00
2013-09-03 22:10:00,2,12934,0,0.00,2,2,0,2,11181,16507,1783,12295,0,0,0,0,0.00,0.00,0.00,0.00
2013-09-03 22:20:00,2,16429,0,0.00,2,2,0,2,8692,18991,2859,17280,0,0,0,0,0.00,0.00,0.00,0.00
2013-09-03 22:30:00,2,11357,0,0.00,2,2,0,2,8454,13373,1788,12293,0,0,0,0,0.00,0.00,0.00,0.00
2013-09-03 22:40:00,2,13642,0,0.00,2,2,0,2,9736,16815,2056,13610,0,0,0,0,0.00,0.00,0.00,0.00
2013-09-03 22:50:00,2,10906,0,0.00,2,2,0,2,9094,15413,1767,10241,0,0,0,0,0.00,0.00,0.00,0.00
2013-09-03 23:00:00,2,31287,0,0.00,2,2,0,2,19143,37783,5334,31384,0,0,0,0,0.00,0.00,0.00,0.00
2013-09-03 23:10:00,2,20279,0,0.00,2,2,0,2,10001,33092,8866,18930,0,0,0,0,0.00,0.00,0.00,0.00
2013-09-03 23:20:00,2,28884,0,0.00,2,2,0,2,13771,39409,9229,31622,0,0,0,0,0.00,0.00,0.00,0.00
2013-09-03 23:30:00,2,33014,0,0.00,2,2,0,2,25350,38872,3899,33486,0,0,0,0,0.00,0.00,0.00,0.00
2013-09-03 23:40:00,2,34887,0,0.00,2,2,0,2,25864,42105,4846,33710,0,0,0,0,0.00,0.00,0.00,0.00
2013-09-03 23:50:00,2,19370,0,0.00,2,2,0,2,14626,25602,3785,17234,0,0,0,0,0.00,0.00,0.00,0.00
